FW4110 Weather Reports


time (UTC)temp
C
wind
direction
speed
KPH
gust
KPH
rain 1hr
cm
rain 24hr
cm
rain mn
cm
humidity
%
barometer
mb
20260507224513 19 166 4.8 11.3 0.00 0.00 0.00 55 1016.1
20260507223008 19 197 0.0 6.4 0.00 0.00 0.00 58 1016.4
20260507221510 20 268 4.8 22.5 0.00 0.00 0.00 56 1016.4
20260507220005 20 7 8.0 17.7 0.00 0.00 0.00 56 1016.3
20260507214504 20 344 4.8 20.9 0.00 0.00 0.00 55 1016.3
20260507213003 20 235 1.6 11.3 0.00 0.00 0.00 57 1016.4
20260507211606 19 320 0.0 16.1 0.00 0.00 0.00 57 1016.6
20260507210103 19 298 6.4 14.5 0.00 0.00 0.00 58 1016.8
20260507204554 18 360 8.0 14.5 0.00 0.00 0.00 57 1017.1
20260507203058 18 263 4.8 12.9 0.00 0.00 0.00 56 1017.5
20260507201552 18 287 4.8 12.9 0.00 0.00 0.00 56 1017.5
20260507200051 18 340 3.2 9.7 0.00 0.00 0.00 55 1017.7
20260507194550 18 350 3.2 17.7 0.00 0.00 0.00 55 1017.7
20260507193047 18 261 3.2 11.3 0.00 0.00 0.00 55 1017.8
20260507191546 18 10 8.0 19.3 0.00 0.00 0.00 56 1017.9
20260507190044 18 308 0.0 17.7 0.00 0.00 0.00 57 1018.0
20260507184544 18 358 0.0 14.5 0.00 0.00 0.00 57 1018.1
20260507183048 18 356 1.6 14.5 0.00 0.00 0.00 54 1018.4
20260507181542 18 282 1.6 12.9 0.00 0.00 0.00 55 1018.4
20260507180045 18 259 4.8 14.5 0.00 0.00 0.00 56 1018.7
20260507174535 17 9 4.8 16.1 0.00 0.00 0.00 55 1019.0
20260507173034 17 232 1.6 17.7 0.00 0.00 0.00 56 1019.1
20260507171531 17 237 1.6 12.9 0.00 0.00 0.00 58 1019.1
20260507170028 17 107 4.8 14.5 0.00 0.00 0.00 59 1019.4
20260507164528 17 206 3.2 16.1 0.00 0.00 0.00 59 1019.9
20260507163024 17 286 4.8 12.9 0.00 0.00 0.00 59 1020.0
20260507161532 16 275 3.2 12.9 0.00 0.00 0.00 59 1020.1
20260507160036 16 341 3.2 16.1 0.00 0.00 0.00 59 1020.4
20260507154519 16 261 4.8 12.9 0.00 0.00 0.00 60 1020.3
20260507153016 15 327 3.2 12.9 0.00 0.00 0.00 65 1020.6
20260507151515 15 272 1.6 9.7 0.00 0.00 0.00 67 1020.4
20260507150015 15 314 4.8 11.3 0.00 0.00 0.00 69 1020.7
20260507144516 14 310 3.2 9.7 0.00 0.00 0.00 69 1020.9
20260507143011 13 153 1.6 9.7 0.00 0.00 0.00 72 1020.9
20260507141513 13 235 1.6 6.4 0.00 0.00 0.00 48 1021.0
20260507140108 12 313 0.0 3.2 0.00 0.00 0.00 55 1021.0
20260507134555 11 261 0.0 6.4 0.00 0.00 0.00 60 1021.1
20260507133055 10 258 0.0 3.2 0.00 0.00 0.00 60 1020.9
20260507131549 10 223 0.0 0.0 0.00 0.00 0.00 72 1020.9
20260507130056 8 266 0.0 0.0 0.00 0.00 0.00 78 1021.0
20260507124556 6 308 0.0 3.2 0.00 0.00 0.00 85 1021.1
20260507123036 5 230 0.0 1.6 0.00 0.00 0.00 88 1021.0
20260507121536 4 45 0.0 0.0 0.00 0.00 0.00 87 1021.0
20260507120030 -17 0.0 0.0 0.00 0.00 0.00 1020.8
20260507114529 -17 0.0 0.0 0.00 0.00 0.00 1020.6
20260507113023 -17 0.0 0.0 0.00 0.00 0.00 1020.5
20260507111518 -17 45 0.0 0.0 0.00 0.00 0.00 1020.4
20260507110025 2 46 0.0 0.0 0.00 0.00 0.00 85 1020.4
20260507104514 3 46 0.0 0.0 0.00 0.05 0.00 85 1020.3
20260507103013 3 46 0.0 0.0 0.00 0.05 0.00 85 1020.1
20260507101511 3 45 0.0 0.0 0.00 0.05 0.00 84 1020.0
20260507100016 3 46 0.0 0.0 0.00 0.05 0.00 83 1020.0
20260507094508 3 45 0.0 0.0 0.00 0.10 0.00 83 1020.0
20260507093006 3 46 0.0 0.0 0.00 0.10 0.00 80 1019.8
20260507091506 3 46 0.0 0.0 0.00 0.10 0.00 69 1019.8
20260507090006 3 46 0.0 0.0 0.00 0.10 0.00 66 1020.0
20260507084600 4 46 0.0 0.0 0.00 0.15 0.00 64 1020.2
20260507083058 4 45 0.0 0.0 0.00 0.15 0.00 64 1020.3
20260507081558 4 45 0.0 0.0 0.00 0.15 0.00 61 1020.5
20260507080101 4 45 0.0 0.0 0.00 0.15 0.00 60 1020.7
20260507074607 5 46 0.0 0.0 0.00 0.18 0.00 59 1020.5
20260507073053 5 46 0.0 0.0 0.00 0.18 0.00 59 1020.4
20260507071554 5 45 0.0 0.0 0.00 0.18 0.00 59 1020.2
20260507070106 5 46 0.0 0.0 0.00 0.18 0.00 57 1020.3
20260507064550 5 46 0.0 0.0 0.00 0.20 0.00 56 1020.4
20260507063056 5 46 0.0 0.0 0.00 0.20 0.00 65 1020.6
20260507061549 5 46 0.0 0.0 0.00 0.20 0.00 70 1020.6
20260507060046 5 46 0.0 0.0 0.00 0.20 0.00 75 1020.6
20260507054544 5 46 0.0 0.0 0.00 0.38 0.00 76 1020.4
20260507053043 5 46 0.0 0.0 0.00 0.38 0.00 76 1020.5
20260507051540 5 46 0.0 0.0 0.00 0.38 0.00 77 1020.4
20260507050038 5 46 0.0 0.0 0.00 0.38 0.00 81 1020.3
20260507044535 5 46 0.0 0.0 0.00 0.66 0.00 82 1020.2
20260507043037 6 46 0.0 0.0 0.00 0.66 0.00 82 1020.1
20260507041533 6 46 0.0 0.0 0.00 0.66 0.00 83 1020.0
20260507040033 6 45 0.0 0.0 0.00 0.66 0.00 84 1020.2
20260507034535 6 46 0.0 0.0 0.00 0.76 0.00 85 1020.2
20260507033028 6 46 0.0 0.0 0.00 0.76 0.00 86 1020.3
20260507031526 7 46 0.0 0.0 0.00 0.76 0.00 86 1020.4
20260507030023 7 45 0.0 0.0 0.00 0.76 0.00 86 1020.3
20260507024525 7 46 0.0 0.0 0.00 0.81 0.00 86 1020.2
20260507023024 8 46 0.0 0.0 0.00 0.81 0.00 86 1020.1
20260507021520 8 45 0.0 0.0 0.00 0.81 0.00 85 1020.0
20260507020030 8 46 0.0 0.0 0.00 0.81 0.00 85 1019.8
20260507014519 8 46 0.0 0.0 0.00 0.89 0.00 84 1019.6
20260507013038 9 46 0.0 0.0 0.00 0.89 0.00 84 1019.3
20260507011518 10 46 0.0 0.0 0.00 0.89 0.00 81 1019.3
20260507010017 11 46 0.0 0.0 0.00 0.89 0.00 80 1019.0
20260507004517 13 46 0.0 0.0 0.00 0.89 0.00 75 1018.6
20260507003015 14 47 0.0 3.2 0.00 0.89 0.00 71 1018.6
20260507001516 15 1 0.0 8.0 0.00 0.89 0.00 66 1018.7
20260507000017 15 351 3.2 9.7 0.00 0.89 0.00 66 1018.8
20260506234520 15 355 3.2 9.7 0.00 0.89 0.00 66 1018.6
20260506233014 15 35 6.4 9.7 0.00 0.89 0.00 64 1018.6
20260506231514 15 343 4.8 14.5 0.00 0.89 0.00 63 1018.7
20260506230011 16 342 11.3 17.7 0.00 0.89 0.00 63 1018.6